Terminal Aerodrome Forecast
Issued by NWS

Home | Current Version | Previous Version | Text Only | Print | Product List | Glossary On
Versions: 1 2 3 4 5 6 7 8 9 10 11 12 13 14 15 16 17
000
FTUS42 KILM 220500
TAFCRE
TAF
KCRE 220520Z 2206/2306 25008KT P6SM FEW100
     FM221000 30005KT P6SM VCSH SCT050 BKN100
     FM221400 02006KT P6SM SCT050 BKN100
     FM222100 VRB05KT P6SM VCSH BKN050 BKN100=

USA.gov is the U.S. government's official web portal to all federal, state and local government web resources and services.